Time,TemperatureF,DewpointF,PressureIn,WindDirection,WindDirectionDegrees,WindSpeedMPH,WindSpeedGustMPH,Humidity,HourlyPrecipIn,Conditions,Clouds,dailyrainin,SoftwareType,DateUTC
2013-05-28 00:07:00,65.1,63.9,30.00,ESE,112,0.0,-999.0,96,-99.99,,,0.00,Acu-Link.com,2013-05-28 04:07:00,
2013-05-28 00:22:00,64.9,64.0,30.00,ESE,112,0.0,-999.0,97,-99.99,,,0.00,Acu-Link.com,2013-05-28 04:22:00,
2013-05-28 00:37:00,64.9,64.0,30.00,ESE,112,0.0,-999.0,97,-99.99,,,0.00,Acu-Link.com,2013-05-28 04:37:00,
2013-05-28 00:52:00,64.9,64.0,30.00,ESE,112,0.0,-999.0,97,-99.99,,,0.00,Acu-Link.com,2013-05-28 04:52:00,
2013-05-28 01:07:00,64.6,63.7,30.00,ESE,112,0.0,-999.0,97,-99.99,,,0.00,Acu-Link.com,2013-05-28 05:07:00,
2013-05-28 01:23:00,64.0,63.4,30.00,ESE,112,1.1,-999.0,98,-99.99,,,0.00,Acu-Link.com,2013-05-28 05:23:00,
2013-05-28 01:38:00,63.7,63.1,30.00,ESE,112,0.0,-999.0,98,-99.99,,,0.00,Acu-Link.com,2013-05-28 05:38:00,
2013-05-28 01:53:00,63.1,62.5,29.99,ESE,112,0.0,-999.0,98,-99.99,,,0.00,Acu-Link.com,2013-05-28 05:53:00,
2013-05-28 02:08:00,62.8,62.2,29.99,ESE,112,0.0,-999.0,98,-99.99,,,0.00,Acu-Link.com,2013-05-28 06:08:00,
2013-05-28 02:24:00,62.8,62.2,29.99,ESE,112,0.0,-999.0,98,-99.99,,,0.00,Acu-Link.com,2013-05-28 06:24:00,
2013-05-28 02:39:00,62.6,62.0,29.98,East,90,0.0,-999.0,98,-99.99,,,0.00,Acu-Link.com,2013-05-28 06:39:00,
2013-05-28 02:54:00,62.2,61.6,29.98,East,90,0.0,-999.0,98,-99.99,,,0.00,Acu-Link.com,2013-05-28 06:54:00,
2013-05-28 03:09:00,61.9,61.3,29.98,East,90,0.0,-999.0,98,-99.99,,,0.00,Acu-Link.com,2013-05-28 07:09:00,
2013-05-28 03:24:00,61.5,60.9,29.98,ESE,112,0.0,-999.0,98,-99.99,,,0.00,Acu-Link.com,2013-05-28 07:24:00,
2013-05-28 03:40:00,61.5,60.9,29.98,East,90,0.0,-999.0,98,-99.99,,,0.00,Acu-Link.com,2013-05-28 07:40:00,
2013-05-28 03:55:00,61.3,60.7,29.99,ESE,112,1.1,-999.0,98,-99.99,,,0.00,Acu-Link.com,2013-05-28 07:55:00,
2013-05-28 04:11:00,61.3,60.7,29.99,ESE,112,1.1,-999.0,98,-99.99,,,0.00,Acu-Link.com,2013-05-28 08:11:00,
2013-05-28 04:26:00,61.3,60.7,29.99,ESE,112,0.0,-999.0,98,-99.99,,,0.00,Acu-Link.com,2013-05-28 08:26:00,
2013-05-28 04:41:00,61.3,60.7,29.99,ESE,112,0.0,-999.0,98,-99.99,,,0.00,Acu-Link.com,2013-05-28 08:41:00,
2013-05-28 04:57:00,61.3,60.7,29.99,ESE,112,0.0,-999.0,98,-99.99,,,0.00,Acu-Link.com,2013-05-28 08:57:00,
2013-05-28 05:12:00,61.2,60.6,29.99,ESE,112,0.0,-999.0,98,-99.99,,,0.00,Acu-Link.com,2013-05-28 09:12:00,
2013-05-28 05:27:00,60.8,60.2,30.00,ESE,112,0.0,-999.0,98,-99.99,,,0.00,Acu-Link.com,2013-05-28 09:27:00,
2013-05-28 05:42:00,60.8,60.2,30.00,ESE,112,0.0,-999.0,98,-99.99,,,0.00,Acu-Link.com,2013-05-28 09:42:00,
2013-05-28 05:57:00,60.6,60.0,30.02,ESE,112,0.0,-999.0,98,-99.99,,,0.00,Acu-Link.com,2013-05-28 09:57:00,
2013-05-28 06:13:00,60.6,60.0,30.02,ESE,112,0.0,-999.0,98,-99.99,,,0.00,Acu-Link.com,2013-05-28 10:13:00,
2013-05-28 06:28:00,60.3,59.7,30.03,ESE,112,0.0,-999.0,98,-99.99,,,0.00,Acu-Link.com,2013-05-28 10:28:00,
2013-05-28 06:43:00,60.1,59.5,30.04,ESE,112,0.0,-999.0,98,-99.99,,,0.00,Acu-Link.com,2013-05-28 10:43:00,
2013-05-28 06:58:00,59.9,59.3,30.04,ESE,112,0.0,-999.0,98,-99.99,,,0.00,Acu-Link.com,2013-05-28 10:58:00,
2013-05-28 07:13:00,59.9,59.3,30.05,ESE,112,0.0,-999.0,98,-99.99,,,0.00,Acu-Link.com,2013-05-28 11:13:00,
2013-05-28 07:29:00,59.9,59.3,30.04,ESE,112,0.0,-999.0,98,-99.99,,,0.00,Acu-Link.com,2013-05-28 11:29:00,
2013-05-28 07:44:00,60.3,59.7,30.05,ESE,112,0.0,-999.0,98,-99.99,,,0.00,Acu-Link.com,2013-05-28 11:44:00,
2013-05-28 07:59:00,60.6,60.0,30.05,ESE,112,0.0,-999.0,98,-99.99,,,0.00,Acu-Link.com,2013-05-28 11:59:00,
2013-05-28 08:14:00,60.8,60.2,30.05,ESE,112,0.0,-999.0,98,-99.99,,,0.00,Acu-Link.com,2013-05-28 12:14:00,
2013-05-28 08:29:00,61.3,60.7,30.04,ESE,112,0.0,-999.0,98,-99.99,,,0.00,Acu-Link.com,2013-05-28 12:29:00,
2013-05-28 08:45:00,62.1,61.5,30.05,ESE,112,0.0,-999.0,98,-99.99,,,0.00,Acu-Link.com,2013-05-28 12:45:00,
2013-05-28 09:00:00,63.0,62.4,30.05,ESE,112,0.0,-999.0,98,-99.99,,,0.00,Acu-Link.com,2013-05-28 13:00:00,
2013-05-28 09:15:00,64.0,63.4,30.05,ESE,112,0.0,-999.0,98,-99.99,,,0.00,Acu-Link.com,2013-05-28 13:15:00,
2013-05-28 09:30:00,64.9,64.3,30.05,ESE,112,0.0,-999.0,98,-99.99,,,0.00,Acu-Link.com,2013-05-28 13:30:00,
2013-05-28 09:45:00,66.2,64.7,30.05,ESE,112,0.0,-999.0,95,-99.99,,,0.00,Acu-Link.com,2013-05-28 13:45:00,
2013-05-28 10:01:00,67.8,65.1,30.06,WNW,292,0.0,-999.0,91,-99.99,,,0.00,Acu-Link.com,2013-05-28 14:01:00,
2013-05-28 10:16:00,68.5,66.4,30.05,WNW,292,1.7,-999.0,93,-99.99,,,0.00,Acu-Link.com,2013-05-28 14:16:00,
2013-05-28 10:31:00,69.6,66.2,30.05,WNW,292,0.0,-999.0,89,-99.99,,,0.00,Acu-Link.com,2013-05-28 14:31:00,
2013-05-28 10:46:00,71.1,67.4,30.04,West,270,0.0,-999.0,88,-99.99,,,0.00,Acu-Link.com,2013-05-28 14:46:00,
2013-05-28 11:02:00,72.5,67.7,30.04,North,0,0.0,-999.0,85,-99.99,,,0.00,Acu-Link.com,2013-05-28 15:02:00,
2013-05-28 11:17:00,73.8,66.1,30.03,South,180,0.0,-999.0,77,-99.99,,,0.00,Acu-Link.com,2013-05-28 15:17:00,
2013-05-28 11:32:00,75.9,67.4,30.04,South,180,0.0,-999.0,75,-99.99,,,0.00,Acu-Link.com,2013-05-28 15:32:00,
2013-05-28 11:47:00,79.0,67.9,30.04,SE,135,1.7,-999.0,69,-99.99,,,0.00,Acu-Link.com,2013-05-28 15:47:00,
2013-05-28 12:02:00,78.6,65.8,30.04,ENE,67,1.1,-999.0,65,-99.99,,,0.00,Acu-Link.com,2013-05-28 16:02:00,
2013-05-28 12:18:00,78.3,67.3,30.04,SE,135,1.7,-999.0,69,-99.99,,,0.00,Acu-Link.com,2013-05-28 16:18:00,
2013-05-28 12:33:00,78.4,65.2,30.04,SW,225,1.7,-999.0,64,-99.99,,,0.00,Acu-Link.com,2013-05-28 16:33:00,
2013-05-28 12:48:00,78.3,66.4,30.03,South,180,1.7,-999.0,67,-99.99,,,0.00,Acu-Link.com,2013-05-28 16:48:00,
2013-05-28 13:03:00,79.2,65.5,30.03,ESE,112,2.2,-999.0,63,-99.99,,,0.00,Acu-Link.com,2013-05-28 17:03:00,
2013-05-28 13:18:00,79.2,66.8,30.02,ESE,112,2.2,-999.0,66,-99.99,,,0.00,Acu-Link.com,2013-05-28 17:18:00,
2013-05-28 13:34:00,80.8,66.1,30.01,ESE,112,1.1,-999.0,61,-99.99,,,0.00,Acu-Link.com,2013-05-28 17:34:00,
2013-05-28 13:49:00,81.9,65.6,30.01,South,180,1.1,-999.0,58,-99.99,,,0.00,Acu-Link.com,2013-05-28 17:49:00,
2013-05-28 14:04:00,82.8,66.5,30.00,NW,315,1.1,-999.0,58,-99.99,,,0.00,Acu-Link.com,2013-05-28 18:04:00,
2013-05-28 14:19:00,81.9,67.6,30.00,ESE,112,1.7,-999.0,62,-99.99,,,0.00,Acu-Link.com,2013-05-28 18:19:00,
2013-05-28 14:34:00,82.9,67.6,30.00,SE,135,1.7,-999.0,60,-99.99,,,0.00,Acu-Link.com,2013-05-28 18:34:00,
2013-05-28 14:50:00,85.5,68.5,30.00,WSW,247,4.2,-999.0,57,-99.99,,,0.00,Acu-Link.com,2013-05-28 18:50:00,
2013-05-28 15:05:00,85.1,67.6,29.99,East,90,1.1,-999.0,56,-99.99,,,0.00,Acu-Link.com,2013-05-28 19:05:00,
2013-05-28 15:20:00,83.7,67.3,29.98,ESE,112,2.2,-999.0,58,-99.99,,,0.00,Acu-Link.com,2013-05-28 19:20:00,
2013-05-28 15:35:00,85.1,67.1,29.99,SE,135,2.2,-999.0,55,-99.99,,,0.00,Acu-Link.com,2013-05-28 19:35:00,
2013-05-28 15:50:00,81.1,66.4,29.98,ESE,112,1.1,-999.0,61,-99.99,,,0.00,Acu-Link.com,2013-05-28 19:50:00,
2013-05-28 16:06:00,83.1,66.8,29.98,SSE,157,1.7,-999.0,58,-99.99,,,0.00,Acu-Link.com,2013-05-28 20:06:00,
2013-05-28 16:21:00,83.3,65.9,29.97,South,180,2.2,-999.0,56,-99.99,,,0.00,Acu-Link.com,2013-05-28 20:21:00,
2013-05-28 16:36:00,84.7,65.6,29.97,South,180,1.7,-999.0,53,-99.99,,,0.00,Acu-Link.com,2013-05-28 20:36:00,
2013-05-28 16:51:00,83.3,65.9,29.97,East,90,1.1,-999.0,56,-99.99,,,0.00,Acu-Link.com,2013-05-28 20:51:00,
2013-05-28 17:07:00,82.2,66.4,29.98,SW,225,0.0,-999.0,59,-99.99,,,0.00,Acu-Link.com,2013-05-28 21:07:00,
2013-05-28 17:22:00,81.3,64.6,29.97,SE,135,1.7,-999.0,57,-99.99,,,0.00,Acu-Link.com,2013-05-28 21:22:00,
2013-05-28 17:37:00,81.0,64.8,29.97,SE,135,0.0,-999.0,58,-99.99,,,0.00,Acu-Link.com,2013-05-28 21:37:00,
2013-05-28 17:52:00,81.3,65.6,29.96,East,90,0.0,-999.0,59,-99.99,,,0.00,Acu-Link.com,2013-05-28 21:52:00,
2013-05-28 18:07:00,80.4,64.7,29.96,SE,135,0.0,-999.0,59,-99.99,,,0.00,Acu-Link.com,2013-05-28 22:07:00,
2013-05-28 18:23:00,80.1,64.9,29.97,ENE,67,0.0,-999.0,60,-99.99,,,0.00,Acu-Link.com,2013-05-28 22:23:00,
2013-05-28 18:38:00,79.5,65.3,29.96,SSE,157,0.0,-999.0,62,-99.99,,,0.00,Acu-Link.com,2013-05-28 22:38:00,
2013-05-28 18:53:00,78.6,65.8,29.96,SE,135,0.0,-999.0,65,-99.99,,,0.00,Acu-Link.com,2013-05-28 22:53:00,
2013-05-28 19:08:00,77.2,66.2,29.96,SE,135,1.1,-999.0,69,-99.99,,,0.00,Acu-Link.com,2013-05-28 23:08:00,
2013-05-28 19:23:00,77.0,66.4,29.96,ESE,112,1.1,-999.0,70,-99.99,,,0.00,Acu-Link.com,2013-05-28 23:23:00,
2013-05-28 19:39:00,76.8,67.1,29.97,ESE,112,0.0,-999.0,72,-99.99,,,0.00,Acu-Link.com,2013-05-28 23:39:00,
2013-05-28 19:54:00,75.7,67.6,29.97,ESE,112,0.0,-999.0,76,-99.99,,,0.00,Acu-Link.com,2013-05-28 23:54:00,
2013-05-28 20:09:00,74.1,67.2,29.98,ESE,112,1.7,-999.0,79,-99.99,,,0.00,Acu-Link.com,2013-05-29 00:09:00,
2013-05-28 20:24:00,73.0,67.2,29.98,ESE,112,0.0,-999.0,82,-99.99,,,0.00,Acu-Link.com,2013-05-29 00:24:00,
2013-05-28 20:39:00,71.6,67.2,29.98,ESE,112,0.0,-999.0,86,-99.99,,,0.00,Acu-Link.com,2013-05-29 00:39:00,
2013-05-28 20:55:00,70.5,66.4,29.97,ESE,112,0.0,-999.0,87,-99.99,,,0.00,Acu-Link.com,2013-05-29 00:55:00,
2013-05-28 21:10:00,69.8,66.1,29.97,ESE,112,0.0,-999.0,88,-99.99,,,0.00,Acu-Link.com,2013-05-29 01:10:00,
2013-05-28 21:25:00,68.7,65.3,29.98,ESE,112,0.0,-999.0,89,-99.99,,,0.00,Acu-Link.com,2013-05-29 01:25:00,
2013-05-28 21:40:00,68.0,65.3,29.98,ESE,112,0.0,-999.0,91,-99.99,,,0.00,Acu-Link.com,2013-05-29 01:40:00,
2013-05-28 21:55:00,67.5,65.1,29.98,ESE,112,0.0,-999.0,92,-99.99,,,0.00,Acu-Link.com,2013-05-29 01:55:00,
2013-05-28 22:11:00,66.7,64.6,29.98,ESE,112,0.0,-999.0,93,-99.99,,,0.00,Acu-Link.com,2013-05-29 02:11:00,
2013-05-28 22:26:00,66.2,64.7,29.99,ESE,112,0.0,-999.0,95,-99.99,,,0.00,Acu-Link.com,2013-05-29 02:26:00,
2013-05-28 22:41:00,65.8,64.9,29.99,ESE,112,0.0,-999.0,97,-99.99,,,0.00,Acu-Link.com,2013-05-29 02:41:00,
2013-05-28 22:56:00,65.5,64.9,30.00,ESE,112,1.1,-999.0,98,-99.99,,,0.00,Acu-Link.com,2013-05-29 02:56:00,
2013-05-28 23:12:00,64.9,64.3,30.00,ESE,112,0.0,-999.0,98,-99.99,,,0.00,Acu-Link.com,2013-05-29 03:12:00,
2013-05-28 23:27:00,64.8,64.2,30.00,ESE,112,0.0,-999.0,98,-99.99,,,0.00,Acu-Link.com,2013-05-29 03:27:00,
2013-05-28 23:42:00,64.6,64.0,30.00,ESE,112,0.0,-999.0,98,-99.99,,,0.00,Acu-Link.com,2013-05-29 03:42:00,
2013-05-28 23:57:00,64.0,63.4,30.00,ESE,112,0.0,-999.0,98,-99.99,,,0.00,Acu-Link.com,2013-05-29 03:57:00,